www.pogodaiklimat.ru

Погода и климат >> Архив погоды >> Австралия >> Alice Springs Airport


ПОГОДА в Alice Springs Airport

  • Прогноз погоды в Alice Springs Airport
  • Монитор погоды в Alice Springs Airport
  • Климат города

АРХИВ ПОГОДЫ в Alice Springs Airport

Время (UTC), дата Ветер
(напр.,м/с)
 
Видим.   Явления Облачность Т
(С)
Тd
(С)
f
(%)
Тe
(С)
Тes
(С)
Комфортность P
(гПа)
Po
(гПа)
Тmin
(С)
Tmax
(С)
R
(мм)
R24
(мм)
S
(см)
05 15.10 Ю 4 н/о н/о +30.1 +1.5 16 +28 +28 жарко 1010.4 949.2
06 15.10 Ю 5 н/о н/о +30.3 +0.8 15 +28 +28 жарко 1010.1 948.9
08 15.10 Ю 5 н/о н/о +30.4 +2.6 17 +28 +28 жарко 1010.0 948.8
09 15.10 Ю 5 н/о н/о +28.7 +2.8 19 +27 +27 жарко 1010.7 949.4
11 15.10 Ю 4 н/о н/о +25.9 +2.6 22 +25 +25 комфорт 1012.1 950.8
12 15.10 Ю 3 н/о н/о +24.5 +2.6 24 +24 +24 комфорт 1013.0 951.6
14 15.10 Ю 3 н/о н/о +21.7 +2.9 29 +22 +22 комфорт 1014.1 952.6
15 15.10 Ю 2 н/о н/о +19.5 +2.8 33 +20 +20 1014.3 952.8
17 15.10 Ю 2 н/о н/о +18.5 +1.9 33 +19 +19 1014.3 952.8
18 15.10 Ю 4 н/о н/о +17.5 +3.0 38 +17 +17 1014.7 953.2
20 15.10 Ю 3 н/о н/о +15.6 +4.3 47 +15 +15 1016.5 954.9
21 15.10 ЮВ 2 н/о н/о +15.3 +5.5 52 +15 +15 1017.6 955.9
23 15.10 ЮВ 9 н/о н/о +21.1 +6.6 39 +22 +22 комфорт 1018.5 956.8
00 16.10 В 8 н/о н/о +21.9 +6.6 37 +23 +23 комфорт 1018.9 957.1
02 16.10 ЮВ 6 н/о н/о +23.9 +6.2 32 +24 +24 комфорт 1017.6 955.9
03 16.10 В 4 н/о н/о +24.6 +5.4 29 +24 +24 комфорт 1016.5 954.9
05 16.10 В 5 н/о н/о +26.5 +4.9 25 +26 +26 жарко 1014.9 953.4
06 16.10 В 5 н/о н/о +26.7 +4.5 24 +26 +26 жарко 1014.3 952.8
08 16.10 ЮВ 5 н/о н/о +26.9 +3.4 22 +26 +26 жарко 1014.3 952.8
09 16.10 ЮВ 5 н/о н/о +25.4 +3.4 24 +24 +24 комфорт 1014.7 953.2
11 16.10 ЮВ 3 н/о н/о +21.1 +3.8 32 +21 +21 комфорт 1016.2 954.6
12 16.10 ЮВ 4 н/о н/о +20.4 +3.2 32 +21 +21 комфорт 1016.8 955.2
14 16.10 В 3 н/о н/о +18.5 +1.9 33 +19 +19 1017.3 955.6
15 16.10 В 3 н/о н/о +18.1 +1.6 33 +18 +18 1016.9 955.3
17 16.10 В 3 н/о н/о +15.0 +3.5 46 +15 +15 1016.4 954.8
18 16.10 В 2 н/о н/о +13.1 +4.5 56 +13 +13 1016.3 954.7
20 16.10 штиль 0 н/о н/о +11.7 +4.2 60 +11 +11 1017.0 955.4
21 16.10 штиль 0 н/о н/о +12.2 +4.4 59 +12 +12 1017.9 956.2
23 16.10 В 6 н/о н/о +20.9 +0.7 26 +21 +21 комфорт 1019.1 957.3
00 17.10 В 7 н/о н/о +22.9 +0.1 22 +22 +22 комфорт 1019.2 957.4
02 17.10 ЮВ 6 н/о н/о +25.4 -0.6 18 +24 +24 комфорт 1017.6 955.9
03 17.10 В 5 н/о н/о +26.6 -2.1 15 +24 +24 комфорт 1016.3 954.7
05 17.10 Ю 4 н/о н/о +28.1 -0.9 15 +26 +26 жарко 1014.0 952.5
06 17.10 Ю 5 н/о н/о +29.3 -0.9 14 +26 +26 жарко 1013.3 951.9
08 17.10 ЮВ 3 н/о н/о +28.2 -2.8 13 +25 +25 комфорт 1013.1 951.7
09 17.10 ЮВ 4 н/о н/о +27.2 -3.6 13 +24 +24 комфорт 1013.6 952.2
11 17.10 В 4 н/о н/о +23.3 -2.3 18 +22 +22 комфорт 1014.7 953.2
12 17.10 В 4 н/о н/о +22.3 -2.4 19 +21 +21 комфорт 1015.0 953.5
14 17.10 В 3 н/о н/о +18.3 -1.0 27 +18 +18 1014.7 953.2
15 17.10 СВ 2 н/о н/о +17.8 -0.9 28 +18 +18 1014.3 952.8
17 17.10 В 3 н/о н/о +15.7 -0.1 34 +15 +15 1013.3 951.9
18 17.10 ЮВ 2 н/о н/о +14.1 +1.4 42 +14 +14 1013.2 951.8
20 17.10 В 2 н/о н/о +12.9 +2.2 48 +12 +12 1014.1 952.6
21 17.10 СЗ 1 н/о н/о +13.6 +2.8 48 +15 +15 1015.0 953.5
23 17.10 СВ 5 н/о н/о +23.8 -0.5 20 +23 +23 комфорт 1016.1 954.5
00 18.10 СВ 5 н/о н/о +26.0 -1.7 16 +24 +24 комфорт 1015.7 954.1
02 18.10 СВ 5 н/о н/о +30.1 -1.3 13 +27 +27 жарко 1014.0 952.5
03 18.10 СВ 5 н/о н/о +32.0 -0.9 12 +29 +29 жарко 1013.1 951.7
05 18.10 СЗ 4 н/о н/о +33.6 +0.3 12 +30 +30 жарко 1010.7 949.4
06 18.10 С 5 н/о н/о +33.5 +0.2 12 +30 +30 жарко 1010.0 948.8
08 18.10 СЗ 4 н/о н/о +33.5 +0.2 12 +30 +30 жарко 1009.8 948.6
09 18.10 СЗ 3 н/о н/о +32.1 +0.2 13 +29 +29 жарко 1010.2 949.0
11 18.10 СВ 2 н/о н/о +25.4 +2.8 23 +24 +24 комфорт 1011.7 950.4
12 18.10 В 4 н/о н/о +25.9 +0.5 19 +24 +24 комфорт 1012.1 950.8
14 18.10 СВ 5 н/о н/о +25.3 -1.5 17 +23 +23 комфорт 1011.9 950.6
15 18.10 СВ 3 н/о н/о +25.3 -3.2 15 +23 +23 комфорт 1011.8 950.5
17 18.10 СВ 5 н/о н/о +24.1 -3.3 16 +22 +22 комфорт 1010.8 949.5
18 18.10 С 4 н/о н/о +23.4 -3.0 17 +22 +22 комфорт 1010.7 949.4
20 18.10 С 7 н/о н/о +26.1 -4.4 13 +24 +24 комфорт 1010.9 949.6
21 18.10 С 7 н/о н/о +26.1 -4.4 13 +24 +24 комфорт 1011.5 950.2
23 18.10 С 11 н/о н/о +29.4 -2.9 12 +26 +26 жарко 1012.9 951.5
00 19.10 С 10 н/о н/о +30.0 -3.6 11 +27 +27 жарко 1012.7 951.3
02 19.10 С 10 н/о н/о +34.1 -0.5 11 +31 +31 жарко 1010.9 949.6
03 19.10 СЗ 8 н/о н/о +35.7 +1.9 12 +32 +32 жарко 1010.1 948.9
05 19.10 СЗ 10 н/о н/о +36.1 +3.3 13 +33 +33 жарко 1008.7 947.6
06 19.10 СЗ 9 н/о н/о +35.1 +3.6 14 +32 +32 жарко 1008.3 947.2
08 19.10 З 7 н/о н/о +35.3 +3.8 14 +32 +32 жарко 1008.4 947.3
09 19.10 СЗ 6 н/о н/о +34.2 +6.5 18 +32 +32 жарко 1008.7 947.6
11 19.10 Ю 2 н/о н/о +29.0 +12.8 37 +30 +30 жарко 1011.0 949.7
12 19.10 С 4 н/о н/о +28.5 +13.6 40 +30 +30 жарко 1011.0 949.7
14 19.10 Ю 9 н/о н/о +28.1 +8.9 30 +28 +28 жарко 1012.0 950.7
15 19.10 Ю 7 н/о н/о +26.2 +7.3 30 +26 +26 жарко 1013.3 951.9
17 19.10 Ю 3 н/о н/о +22.9 +7.4 37 +24 +24 комфорт 1013.5 952.1
18 19.10 Ю 5 н/о н/о +22.2 +6.4 36 +23 +23 комфорт 1013.7 952.3
20 19.10 ЮВ 6 н/о н/о +21.3 +6.0 37 +22 +22 комфорт 1015.6 954.0
21 19.10 ЮВ 8 н/о н/о +18.8 +7.3 47 +18 +18 1017.3 955.6
23 19.10 В 8 н/о н/о +19.5 +7.9 47 +20 +20 1019.3 957.5
00 20.10 ЮВ 7 н/о н/о +20.8 +7.8 43 +22 +22 комфорт 1019.5 957.7
02 20.10 ЮВ 7 н/о н/о +23.9 +6.2 32 +24 +24 комфорт 1018.0 956.3
03 20.10 В 6 н/о н/о +26.0 +5.6 27 +25 +25 комфорт 1017.1 955.5
05 20.10 ЮВ 6 н/о н/о +28.5 +4.1 21 +27 +27 жарко 1015.0 953.5
06 20.10 ЮВ 6 н/о н/о +27.9 +2.9 20 +26 +26 жарко 1014.2 952.7
08 20.10 ЮВ 7 н/о н/о +27.9 +0.6 17 +26 +26 жарко 1014.2 952.7
09 20.10 ЮВ 5 н/о н/о +26.5 +0.3 18 +25 +25 комфорт 1014.9 953.4
11 20.10 ЮВ 3 н/о н/о +21.9 -0.1 23 +21 +21 комфорт 1017.4 955.7
12 20.10 ЮВ 4 н/о н/о +20.3 -0.9 24 +20 +20 1018.0 956.3
14 20.10 В 3 н/о н/о +17.8 -2.5 25 +18 +18 1017.5 955.8
15 20.10 ЮВ 3 н/о н/о +16.0 -3.0 27 +16 +16 1016.9 955.3
17 20.10 ЮВ 3 н/о н/о +13.5 -2.4 33 +13 +13 1015.4 953.9
18 20.10 штиль 0 н/о н/о +12.3 -1.6 38 +12 +12 1015.6 954.0
20 20.10 штиль 0 н/о н/о +11.0 -1.4 42 +11 +11 1016.2 954.6
21 20.10 З 2 н/о н/о +11.6 -0.9 42 +11 +11 1017.0 955.4
23 20.10 В 7 н/о н/о +20.7 -1.1 23 +20 +20 1018.1 956.4
00 21.10 В 6 н/о н/о +22.3 -1.7 20 +21 +21 комфорт 1018.1 956.4
02 21.10 В 4 н/о н/о +25.8 -2.8 15 +24 +24 комфорт 1016.5 954.9
03 21.10 ЮВ 3 н/о н/о +27.5 -3.3 13 +25 +25 комфорт 1015.2 953.7
05 21.10 В 3 н/о н/о +30.7 -1.9 12 +27 +27 жарко 1012.6 951.2
06 21.10 ЮВ 3 н/о н/о +30.8 -1.9 12 +28 +28 жарко 1011.7 950.4
08 21.10 Ю 5 н/о н/о +31.4 -2.6 11 +28 +28 жарко 1011.3 950.0
09 21.10 ЮВ 4 н/о н/о +29.9 -3.7 11 +27 +27 жарко 1011.5 950.2
11 21.10 В 3 н/о н/о +24.6 -4.6 14 +22 +22 комфорт 1012.9 951.5
12 21.10 В 3 н/о н/о +23.2 -4.0 16 +21 +21 комфорт 1013.4 952.0
14 21.10 штиль 0 н/о н/о +19.0 -0.9 26 +19 +19 1013.5 952.1
15 21.10 Ю 2 н/о н/о +17.6 -1.1 28 +18 +18 1013.0 951.6
17 21.10 штиль 0 н/о н/о +15.8 -1.7 30 +16 +16 1011.6 950.3
18 21.10 СЗ 3 н/о н/о +15.9 -2.1 29 +16 +16 1011.3 950.0
20 21.10 С 2 н/о н/о +14.1 -1.1 35 +14 +14 1011.6 950.3
21 21.10 З 1 н/о н/о +16.1 -0.6 32 +17 +17 1012.0 950.7
23 21.10 СВ 1 н/о н/о +29.2 -3.1 12 +26 +26 жарко 1013.1 951.7
00 22.10 СВ 4 н/о н/о +32.8 -1.5 11 +29 +29 жарко 1013.0 951.6
02 22.10 Ю 2 н/о н/о +34.8 0.0 11 +31 +31 жарко 1011.8 950.5
03 22.10 С 4 н/о н/о +35.9 -0.5 10 +32 +32 жарко 1010.7 949.4

 

Местоположение метеостанции Alice Springs Airport (Северная территория, Австралия): широта -23.80 долгота 133.88 высота над уровнем моря 547 м.

В архиве по умолчанию представлена погода в Alice Springs Airport за последнюю неделю. Архивные данные за месяц целиком и за предыдущие месяцы, начиная с января 2011 года, Вы можете получить, выбрав интересующий диапазон дат из раскрывающегося списка и нажав кнопку "Ввод!".


*Определитесь, кто Вы:
робот инопланетянин человек

Внимание! Время в таблицах - всемирное. Для получения местного времени необходимо прибавить поправку, которая в Alice Springs Airport равна 9.5 ч.

Смотрите также архив погоды в соседних городах и на ближайших метеорологических станциях:

Погода в Territory Grape Farm (Северная территория, Австралия) (152 км)
Погода в Jervois (Северная территория, Австралия) (250 км)
Погода в Pukatja (Южная Австралия, Австралия) (324 км)
Погода в Yulara Aero (Северная территория, Австралия) (332 км)
Погода в Oodnadatta Airport (Южная Австралия, Австралия) (446 км)
Погода в Wulungurru (Северная территория, Австралия) (464 км)
Погода в Tennant Creek Airport (Северная территория, Австралия) (465 км)
Погода в Rabbit Flat (Северная территория, Австралия) (566 км)
Погода в Giles Meteorologica (Западная Австралия, Австралия) (581 км)
Погода в Coober Pedy Airport (Южная Австралия, Австралия) (588 км)

Пояснения к столбцам:

Ветер - указаны скорость ветра в м/с - средняя за 10 мин, порывы в срок и между сроками (в фигурных скобках) и направление, откуда дует ветер: С - северный, СВ - северо-восточный, В - восточный, ЮВ - юго-восточный, Ю - южный, ЮЗ - юго-западный, З - западный, СЗ - северо-западный.
Видимость - горизонтальная дальность видимости в метрах или километрах. При видимости от 1 до 10 км при отсутствии осадков обычно наблюдается дымка, при ухудшении видимости до 1 км и менее - туман. В сухую погоду видимость может ухудшаться дымом, пылью или мглою.
Явления - указаны атмосферные явления, наблюдавшиеся в срок или в последний час перед сроком; фигурными скобками обозначены явления, наблюдавшиеся между сроками (за 1-3 часа до срока); квадратными скобками обозначены град или гололедные отложения с указанием их диаметра в мм.
Облачность - указаны через наклонную черту общая и нижняя облачность в баллах и высота нижней границы облаков в метрах; квадратными скобками обозначены формы облаков: Ci - перистые, Cs - перисто-слоистые, Cc - перисто-кучевые, Ac - высококучевые, As - высокослоистые, Sc - слоисто-кучевые, Ns - слоисто-дождевые, Cu - кучевые, Cb - кучево-дождевые. Подробнее классификацию облаков см. в Атласе облаков (PDF).
T - Температура воздуха - температура, измеренная на высоте 2 м над землей.
Td - Температура точки росы - температура, при понижении до которой содержащийся в воздухе водяной пар достигнет насыщения.
f - Относительная влажность воздуха - влажноcть воздуха, измеренная на высоте 2 м над землей.
Te - Эффективная температура - температура, которую ощущает одетый по сезону человек в тени. Характеристика душности погоды. При расчете учитывается влияние влажности воздуха и скорости ветра на теплоощущения человека.
Tes - Эффективная температура на солнце - температура, которую ощущает человек, с поправкой на солнечный нагрев. Характеристика знойности погоды. Зависит от высоты солнца над горизонтом, облачности и скорости ветра. Ночью, в пасмурную погоду, а также при ветре 12 м/с и более поправка равна нулю.
P - Атмосферное давление - приведенное к уровню моря атмосферное давление.
Po - Атмосферное давление - измеренное на уровне метеостанции атмосферное давление.
Tmin - Минимальная температура - минимум температуры воздуха на высоте 2 м над землей.
Tmax - Максимальная температура - максимум температуры воздуха на высоте 2 м над землей.
R - Количество осадков - Количество выпавших осадков за период времени, мм. При наведении курсора мыши на число - период времени, за который выпало указанное количество осадков.
R24 - Количество осадков - Количество выпавших осадков за 24 часа, мм.
S - Снежный покров - Высота снежного покрова, см. При наведении курсора мыши на число - состояние снежного покрова и степень покрытия местности в баллах.